FW7539 Weather Reports


Display with metric or nautical units.
time (UTC)temp
F
wind
direction
speed
MPH
gust
MPH
rain 1hr
in
rain 24hr
in
rain mn
in
humidity
%
barometer
mb
20260904212001 83 349 5.0 14.0 0.00 0.00 0.00 58 1015.9
20260904211522 83 10 6.0 18.0 0.00 0.00 0.00 53 1015.7
20260904211001 84 22 6.0 18.0 0.00 0.00 0.00 51 1014.8
20260904210501 85 29 5.0 12.0 0.00 0.00 0.00 49 1014.0
20260904210001 86 16 5.0 16.0 0.00 0.00 0.00 49 1014.0
20260904205522 88 15 7.0 17.0 0.00 0.00 0.00 47 1014.0
20260904205001 92 19 6.0 17.0 0.00 0.00 0.00 42 1014.1
20260904204522 97 7 3.0 13.0 0.00 0.00 0.00 42 1013.8
20260904204001 98 275 2.0 5.0 0.00 0.00 0.00 43 1013.5
20260904203501 98 262 2.0 5.0 0.00 0.00 0.00 42 1013.4
20260904203001 98 335 2.0 5.0 0.00 0.00 0.00 44 1013.3
20260904202501 98 310 2.0 8.0 0.00 0.00 0.00 43 1013.3
20260904202022 98 285 2.0 8.0 0.00 0.00 0.00 42 1013.4
20260904201522 98 250 3.0 7.0 0.00 0.00 0.00 43 1013.5
20260904201001 98 249 2.0 6.0 0.00 0.00 0.00 43 1013.6
20260904200501 97 300 1.0 4.0 0.00 0.00 0.00 45 1013.5
20260904200001 97 253 2.0 8.0 0.00 0.00 0.00 45 1013.4
20260904195501 97 242 3.0 8.0 0.00 0.00 0.00 44 1013.6
20260904195001 97 268 2.0 5.0 0.00 0.00 0.00 46 1013.6
20260904194501 97 356 3.0 7.0 0.00 0.00 0.00 45 1013.6
20260904194001 96 339 3.0 7.0 0.00 0.00 0.00 47 1013.7
20260904193501 96 287 2.0 8.0 0.00 0.00 0.00 47 1013.7
20260904193001 96 277 2.0 8.0 0.00 0.00 0.00 47 1013.6
20260904192501 95 248 3.0 11.0 0.00 0.00 0.00 48 1013.6
20260904192001 95 245 3.0 11.0 0.00 0.00 0.00 48 1013.6
20260904191501 95 259 2.0 12.0 0.00 0.00 0.00 47 1013.7
20260904191001 95 260 2.0 12.0 0.00 0.00 0.00 48 1013.8
20260904190501 95 239 2.0 7.0 0.00 0.00 0.00 49 1013.8
20260904190001 95 244 2.0 8.0 0.00 0.00 0.00 48 1014.0
20260904185502 95 270 2.0 8.0 0.00 0.00 0.00 48 1014.1
20260904185001 95 304 3.0 7.0 0.00 0.00 0.00 49 1014.1
20260904184502 95 263 3.0 7.0 0.00 0.00 0.00 47 1014.2
20260904184001 95 241 2.0 7.0 0.00 0.00 0.00 47 1014.3
20260904183501 95 237 2.0 7.0 0.00 0.00 0.00 49 1014.3
20260904183001 95 255 2.0 7.0 0.00 0.00 0.00 47 1014.4
20260904182502 94 238 2.0 10.0 0.00 0.00 0.00 47 1014.4
20260904182001 94 239 2.0 10.0 0.00 0.00 0.00 47 1014.5
20260904181502 95 263 2.0 9.0 0.00 0.00 0.00 48 1014.6
20260904181022 94 244 3.0 9.0 0.00 0.00 0.00 49 1014.8
20260904180501 94 275 2.0 8.0 0.00 0.00 0.00 49 1014.7
20260904180023 95 306 2.0 8.0 0.00 0.00 0.00 47 1014.9
20260904175522 95 267 2.0 7.0 0.00 0.00 0.00 48 1015.0
20260904175001 95 275 2.0 9.0 0.00 0.00 0.00 49 1015.1
20260904174522 95 290 3.0 9.0 0.00 0.00 0.00 49 1015.1
20260904174001 95 256 2.0 7.0 0.00 0.00 0.00 50 1015.2
20260904173501 95 252 3.0 9.0 0.00 0.00 0.00 48 1015.2
20260904173001 95 256 3.0 9.0 0.00 0.00 0.00 48 1015.4
20260904172501 95 266 2.0 8.0 0.00 0.00 0.00 47 1015.3
20260904172001 95 267 2.0 5.0 0.00 0.00 0.00 49 1015.5
20260904171501 94 253 2.0 6.0 0.00 0.00 0.00 49 1015.5
20260904171001 94 246 3.0 7.0 0.00 0.00 0.00 49 1015.5
20260904170523 94 259 2.0 7.0 0.00 0.00 0.00 50 1015.6
20260904170001 94 240 3.0 13.0 0.00 0.00 0.00 52 1015.6
20260904165501 94 232 3.0 13.0 0.00 0.00 0.00 48 1015.6
20260904165001 94 243 2.0 9.0 0.00 0.00 0.00 49 1015.6
20260904164522 94 320 3.0 9.0 0.00 0.00 0.00 49 1015.6
20260904164001 94 325 3.0 8.0 0.00 0.00 0.00 49 1015.5
20260904163502 94 267 2.0 8.0 0.00 0.00 0.00 50 1015.7
20260904163002 94 301 2.0 9.0 0.00 0.00 0.00 51 1015.7
20260904162501 94 333 2.0 9.0 0.00 0.00 0.00 50 1015.6
20260904162001 93 307 2.0 7.0 0.00 0.00 0.00 52 1015.5
20260904161501 93 260 2.0 7.0 0.00 0.00 0.00 53 1015.7
20260904161002 93 256 2.0 8.0 0.00 0.00 0.00 52 1015.7
20260904160502 93 246 2.0 8.0 0.00 0.00 0.00 53 1015.7
20260904160002 92 265 2.0 5.0 0.00 0.00 0.00 55 1015.7
20260904155502 92 278 2.0 6.0 0.00 0.00 0.00 55 1015.8
20260904155002 92 247 3.0 7.0 0.00 0.00 0.00 55 1015.7
20260904154502 92 263 2.0 7.0 0.00 0.00 0.00 54 1015.6
20260904154023 92 297 2.0 6.0 0.00 0.00 0.00 56 1015.7
20260904153501 91 329 2.0 8.0 0.00 0.00 0.00 56 1015.7
20260904153001 91 341 2.0 8.0 0.00 0.00 0.00 56 1015.7
20260904152522 91 306 2.0 6.0 0.00 0.00 0.00 57 1015.7
20260904152022 91 348 2.0 6.0 0.00 0.00 0.00 57 1015.7
20260904151501 90 349 2.0 7.0 0.00 0.00 0.00 57 1015.6
20260904151001 90 247 2.0 5.0 0.00 0.00 0.00 58 1015.7
20260904150501 90 241 2.0 5.0 0.00 0.00 0.00 59 1015.6
20260904150022 89 277 2.0 5.0 0.00 0.00 0.00 62 1015.6
20260904145501 89 250 2.0 5.0 0.00 0.00 0.00 60 1015.6
20260904145001 88 240 1.0 4.0 0.00 0.00 0.00 61 1015.5
20260904144522 88 262 2.0 4.0 0.00 0.00 0.00 63 1015.6
20260904144001 88 260 2.0 4.0 0.00 0.00 0.00 61 1015.6
20260904143501 88 267 2.0 6.0 0.00 0.00 0.00 61 1015.5
20260904143022 87 255 1.0 6.0 0.00 0.00 0.00 63 1015.5
20260904142501 87 232 1.0 5.0 0.00 0.00 0.00 62 1015.5
20260904142022 87 235 1.0 5.0 0.00 0.00 0.00 63 1015.5
20260904141501 87 255 1.0 5.0 0.00 0.00 0.00 63 1015.5
20260904141001 86 262 2.0 5.0 0.00 0.00 0.00 64 1015.6
20260904140501 86 242 1.0 4.0 0.00 0.00 0.00 65 1015.5
20260904140022 85 235 1.0 4.0 0.00 0.00 0.00 66 1015.4
20260904135502 85 258 1.0 3.0 0.00 0.00 0.00 68 1015.4
20260904135002 84 250 1.0 3.0 0.00 0.00 0.00 69 1015.4
20260904134502 84 271 1.0 3.0 0.00 0.00 0.00 69 1015.5
20260904134002 83 302 1.0 3.0 0.00 0.00 0.00 70 1015.6
20260904133523 83 271 1.0 2.0 0.00 0.00 0.00 71 1015.6
20260904133002 83 251 1.0 2.0 0.00 0.00 0.00 71 1015.7
20260904132501 82 227 0.0 2.0 0.00 0.00 0.00 72 1015.6
20260904132001 82 234 1.0 3.0 0.00 0.00 0.00 73 1015.7
20260904131501 81 222 1.0 3.0 0.00 0.00 0.00 73 1015.6
20260904131001 81 209 1.0 3.0 0.00 0.00 0.00 74 1015.6
20260904130501 81 216 1.0 3.0 0.00 0.00 0.00 74 1015.7
20260904130002 81 227 1.0 4.0 0.00 0.00 0.00 75 1015.7
20260904125502 80 225 1.0 4.0 0.00 0.00 0.00 75 1015.7
20260904125001 80 225 1.0 3.0 0.00 0.00 0.00 75 1015.7
20260904124501 80 243 1.0 3.0 0.00 0.00 0.00 76 1015.6
20260904124001 80 239 1.0 3.0 0.00 0.00 0.00 77 1015.6
20260904123501 79 234 1.0 3.0 0.00 0.00 0.00 77 1015.6
20260904123001 79 249 1.0 3.0 0.00 0.00 0.00 77 1015.6
20260904122501 78 258 1.0 2.0 0.00 0.00 0.00 78 1015.6
20260904122001 78 260 1.0 4.0 0.00 0.00 0.00 78 1015.5
20260904121501 78 248 1.0 4.0 0.00 0.00 0.00 79 1015.5
20260904121001 77 209 0.0 2.0 0.00 0.00 0.00 79 1015.4
20260904120523 77 209 0.0 2.0 0.00 0.00 0.00 80 1015.4
20260904120023 77 164 0.0 2.0 0.00 0.00 0.00 80 1015.3
20260904115502 77 136 0.0 2.0 0.00 0.00 0.00 81 1015.1
20260904115002 77 136 0.0 1.0 0.00 0.00 0.00 81 1015.2
20260904114523 77 0 0.0 0.0 0.00 0.00 0.00 81 1015.1
20260904114022 77 0 0.0 0.0 0.00 0.00 0.00 81 1015.1
20260904113501 77 256 0.0 1.0 0.00 0.00 0.00 81 1015.0
20260904113001 77 262 0.0 2.0 0.00 0.00 0.00 81 1015.0
20260904112501 76 264 0.0 2.0 0.00 0.00 0.00 81 1014.9
20260904112001 76 0 0.0 0.0 0.00 0.00 0.00 81 1014.8
20260904111502 76 299 0.0 1.0 0.00 0.00 0.00 81 1014.8
20260904111002 76 270 0.0 2.0 0.00 0.00 0.00 81 1014.7
20260904110502 76 257 0.0 2.0 0.00 0.00 0.00 81 1014.5
20260904110002 76 251 0.0 2.0 0.00 0.00 0.00 82 1014.4
20260904105502 76 253 0.0 2.0 0.00 0.00 0.00 82 1014.4
20260904105022 76 254 0.0 1.0 0.00 0.00 0.00 82 1014.3
20260904104501 76 254 0.0 1.0 0.00 0.00 0.00 82 1014.3
20260904104022 77 254 0.0 2.0 0.00 0.00 0.00 82 1014.3
20260904103501 77 254 0.0 2.0 0.00 0.00 0.00 81 1014.3
20260904103001 77 254 0.0 1.0 0.00 0.00 0.00 81 1014.3
20260904102501 77 254 0.0 1.0 0.00 0.00 0.00 81 1014.3
20260904102001 77 255 0.0 1.0 0.00 0.00 0.00 81 1014.3
20260904101502 77 255 0.0 1.0 0.00 0.00 0.00 81 1014.3
20260904101002 77 255 0.0 1.0 0.00 0.00 0.00 81 1014.3
20260904100502 77 255 0.0 1.0 0.00 0.00 0.00 81 1014.4
20260904100002 78 255 0.0 1.0 0.00 0.00 0.00 81 1014.4
20260904095522 78 255 0.0 1.0 0.00 0.00 0.00 81 1014.3
20260904095002 78 255 0.0 1.0 0.00 0.00 0.00 80 1014.3
20260904094501 78 257 0.0 2.0 0.00 0.00 0.00 80 1014.3
20260904094001 78 261 0.0 2.0 0.00 0.00 0.00 81 1014.3
20260904093501 78 313 0.0 1.0 0.00 0.00 0.00 81 1014.3
20260904093001 78 313 0.0 1.0 0.00 0.00 0.00 81 1014.2
20260904092523 78 313 0.0 1.0 0.00 0.00 0.00 81 1014.2
20260904092002 78 313 0.0 1.0 0.00 0.00 0.00 81 1014.3
20260904091523 78 313 0.0 1.0 0.00 0.00 0.00 81 1014.3
20260904091002 78 313 0.0 1.0 0.00 0.00 0.00 80 1014.3
20260904090502 78 313 0.0 1.0 0.00 0.00 0.00 80 1014.3
20260904090001 78 313 0.0 2.0 0.00 0.00 0.00 81 1014.3
20260904085522 78 313 0.0 2.0 0.00 0.00 0.00 80 1014.3
20260904085001 78 0 0.0 0.0 0.00 0.00 0.00 81 1014.3
20260904084501 78 0 0.0 0.0 0.00 0.00 0.00 81 1014.3
20260904084023 78 315 0.0 1.0 0.00 0.00 0.00 81 1014.3
20260904083502 78 315 0.0 1.0 0.00 0.00 0.00 81 1014.3
20260904083002 78 314 0.0 1.0 0.00 0.00 0.00 81 1014.3
20260904082522 78 314 0.0 1.0 0.00 0.00 0.00 81 1014.5
20260904082002 78 314 0.0 1.0 0.00 0.00 0.00 81 1014.4
20260904081502 78 0 0.0 0.0 0.00 0.00 0.00 81 1014.4
20260904081002 77 0 0.0 0.0 0.00 0.00 0.00 82 1014.3
20260904080502 77 0 0.0 0.0 0.00 0.00 0.00 81 1014.4
20260904080002 77 0 0.0 0.0 0.00 0.00 0.00 81 1014.5
20260904075502 77 0 0.0 0.0 0.00 0.00 0.00 82 1014.4
20260904075001 77 0 0.0 0.0 0.00 0.00 0.00 81 1014.4
20260904074522 77 0 0.0 0.0 0.00 0.00 0.00 82 1014.4
20260904074001 77 0 0.0 0.0 0.00 0.00 0.00 81 1014.4
20260904073501 77 0 0.0 0.0 0.00 0.00 0.00 81 1014.4
20260904073001 77 0 0.0 0.0 0.00 0.00 0.00 81 1014.4
20260904072522 77 0 0.0 0.0 0.00 0.00 0.00 81 1014.5
20260904072001 77 0 0.0 0.0 0.00 0.00 0.00 81 1014.5
20260904071501 77 0 0.0 0.0 0.00 0.00 0.00 80 1014.5
20260904071001 77 0 0.0 0.0 0.00 0.00 0.00 80 1014.6
20260904070501 77 0 0.0 0.0 0.00 0.00 0.00 80 1014.7
20260904070002 77 0 0.0 0.0 0.00 0.00 0.00 80 1014.8
20260904065502 77 0 0.0 0.0 0.00 0.00 0.00 80 1014.7
20260904065002 78 0 0.0 0.0 0.00 0.00 0.00 80 1014.7
20260904064522 78 314 0.0 1.0 0.00 0.00 0.00 80 1014.8
20260904064001 78 314 0.0 1.0 0.00 0.00 0.00 79 1014.8
20260904063502 78 314 0.0 1.0 0.00 0.00 0.00 79 1014.8
20260904063002 78 314 0.0 1.0 0.00 0.00 0.00 79 1014.8
20260904062502 78 314 0.0 1.0 0.00 0.00 0.00 79 1014.8
20260904062002 78 314 0.0 1.0 0.00 0.00 0.00 79 1014.9
20260904061522 78 314 0.0 1.0 0.00 0.00 0.00 78 1014.9
20260904061002 78 314 0.0 1.0 0.00 0.00 0.00 78 1014.9
20260904060502 79 314 0.0 1.0 0.00 0.00 0.00 78 1015.0
20260904060023 79 314 0.0 1.0 0.00 0.00 0.00 78 1015.0
20260904055502 79 314 0.0 1.0 0.00 0.00 0.00 78 1015.0
20260904055002 78 314 0.0 1.0 0.00 0.00 0.00 78 1015.0
20260904054502 78 0 0.0 0.0 0.00 0.00 0.00 78 1014.9
20260904054002 79 0 0.0 0.0 0.00 0.00 0.00 78 1015.0
20260904053502 79 314 0.0 1.0 0.00 0.00 0.00 78 1015.0
20260904053002 79 314 0.0 1.0 0.00 0.00 0.00 78 1015.0
20260904052502 79 314 0.0 1.0 0.00 0.00 0.00 78 1015.0
20260904052002 79 314 0.0 1.0 0.00 0.00 0.00 78 1014.9
20260904051502 79 314 0.0 1.0 0.00 0.00 0.00 78 1014.9
20260904051002 79 314 0.0 1.0 0.00 0.00 0.00 78 1014.9
20260904050502 79 314 0.0 1.0 0.00 0.00 0.00 78 1015.0
20260904050002 79 314 0.0 1.0 0.00 0.00 0.00 78 1014.9
20260904045502 79 314 0.0 1.0 0.00 0.00 0.00 77 1014.9
20260904045002 79 314 0.0 1.0 0.00 0.00 0.00 77 1015.0
20260904044502 79 314 0.0 1.0 0.00 0.00 0.00 77 1015.1
20260904044023 79 314 0.0 1.0 0.00 0.00 0.00 77 1015.0
20260904043501 79 314 0.0 1.0 0.00 0.00 0.00 78 1014.9
20260904043002 79 314 0.0 1.0 0.00 0.00 0.00 77 1014.9
20260904042502 79 314 0.0 1.0 0.00 0.00 0.00 78 1014.9
20260904042023 79 314 0.0 1.0 0.00 0.00 0.00 78 1014.9
20260904041502 79 314 0.0 1.0 0.00 0.00 0.00 79 1014.9
20260904041002 79 0 0.0 0.0 0.00 0.00 0.00 78 1014.8
20260904040502 79 0 0.0 0.0 0.00 0.00 0.00 79 1014.9
20260904040002 79 0 0.0 0.0 0.00 0.00 0.00 78 1015.0
20260904035502 78 0 0.0 0.0 0.00 0.00 0.00 78 1014.8
20260904035001 79 0 0.0 0.0 0.00 0.00 0.00 78 1014.8
20260904034501 79 0 0.0 0.0 0.00 0.00 0.00 79 1014.9
20260904034022 79 0 0.0 0.0 0.00 0.00 0.00 79 1014.9
20260904033501 79 0 0.0 0.0 0.00 0.00 0.00 78 1014.9
20260904033001 79 0 0.0 0.0 0.00 0.00 0.00 79 1014.9
20260904032522 79 0 0.0 0.0 0.00 0.00 0.00 79 1014.9
20260904032001 79 0 0.0 0.0 0.00 0.00 0.00 78 1014.9
20260904031502 79 0 0.0 0.0 0.00 0.00 0.00 78 1014.8
20260904031002 79 0 0.0 0.0 0.00 0.00 0.00 78 1014.9
20260904030502 80 0 0.0 0.0 0.00 0.00 0.00 77 1014.9
20260904030001 80 0 0.0 0.0 0.00 0.00 0.00 77 1014.8
20260904025501 80 0 0.0 0.0 0.00 0.00 0.00 76 1014.8
20260904025022 80 0 0.0 0.0 0.00 0.00 0.00 77 1014.8
20260904024502 80 0 0.0 0.0 0.00 0.00 0.00 76 1014.9
20260904024002 80 0 0.0 0.0 0.00 0.00 0.00 76 1014.9
20260904023502 80 0 0.0 0.0 0.00 0.00 0.00 76 1014.9
20260904023002 80 0 0.0 0.0 0.00 0.00 0.00 76 1015.0
20260904022502 80 0 0.0 0.0 0.00 0.00 0.00 76 1015.0
20260904022002 80 0 0.0 0.0 0.00 0.00 0.00 77 1014.9
20260904021502 81 0 0.0 0.0 0.00 0.00 0.00 76 1014.9
20260904021001 81 0 0.0 0.0 0.00 0.00 0.00 76 1014.9
20260904020502 81 0 0.0 0.0 0.00 0.00 0.00 76 1014.9
20260904020002 81 0 0.0 0.0 0.00 0.00 0.00 75 1014.9
20260904015502 81 0 0.0 0.0 0.00 0.00 0.00 75 1015.0
20260904015002 81 0 0.0 0.0 0.00 0.00 0.00 74 1015.0
20260904014502 81 0 0.0 0.0 0.00 0.00 0.00 74 1015.0
20260904014002 82 0 0.0 0.0 0.00 0.00 0.00 74 1015.0
20260904013502 82 0 0.0 0.0 0.00 0.00 0.00 74 1015.0
20260904013023 82 0 0.0 0.0 0.00 0.00 0.00 73 1014.9
20260904012502 82 0 0.0 0.0 0.00 0.00 0.00 74 1015.0
20260904012002 82 0 0.0 0.0 0.00 0.00 0.00 73 1015.0
20260904011522 82 0 0.0 0.0 0.00 0.00 0.00 72 1015.0
20260904011002 83 0 0.0 0.0 0.00 0.00 0.00 71 1015.0
20260904010502 83 0 0.0 0.0 0.00 0.00 0.00 71 1014.9
20260904010002 83 0 0.0 0.0 0.00 0.00 0.00 70 1014.7
20260904005502 83 0 0.0 0.0 0.00 0.00 0.00 70 1014.8
20260904005002 84 0 0.0 0.0 0.00 0.00 0.00 70 1014.8
20260904004502 84 0 0.0 0.0 0.00 0.00 0.00 69 1014.6
20260904004002 84 0 0.0 0.0 0.00 0.00 0.00 69 1014.5
20260904003501 84 0 0.0 0.0 0.00 0.00 0.00 68 1014.4
20260904003002 85 0 0.0 0.0 0.00 0.00 0.00 67 1014.4
20260904002502 85 0 0.0 0.0 0.00 0.00 0.00 67 1014.3
20260904002023 86 0 0.0 0.0 0.00 0.00 0.00 66 1014.3
20260904001502 86 0 0.0 0.0 0.00 0.00 0.00 65 1014.3
20260904001002 87 0 0.0 0.0 0.00 0.00 0.00 64 1014.2
20260904000502 87 0 0.0 0.0 0.00 0.00 0.00 63 1014.3
20260904000023 88 0 0.0 0.0 0.00 0.00 0.00 62 1014.3
20260903235502 88 0 0.0 0.0 0.00 0.00 0.00 61 1014.3
20260903235023 89 0 0.0 0.0 0.00 0.00 0.00 60 1014.2
20260903234502 89 0 0.0 0.0 0.00 0.00 0.00 59 1014.1
20260903234022 90 0 0.0 0.0 0.00 0.00 0.00 58 1014.1
20260903233502 90 314 0.0 1.0 0.00 0.00 0.00 56 1014.2
20260903233023 91 313 0.0 2.0 0.00 0.00 0.00 55 1014.1
20260903232501 92 313 0.0 2.0 0.00 0.00 0.00 55 1014.1
20260903232002 92 306 0.0 2.0 0.00 0.00 0.00 53 1014.1
20260903231524 92 280 1.0 2.0 0.00 0.00 0.00 55 1014.0
20260903231002 93 217 1.0 2.0 0.00 0.00 0.00 52 1014.0
20260903230502 93 228 1.0 4.0 0.00 0.00 0.00 52 1013.9
20260903230002 94 224 1.0 5.0 0.00 0.00 0.00 50 1014.0
20260903225523 94 225 1.0 5.0 0.00 0.00 0.00 50 1014.0
20260903225002 94 256 1.0 4.0 0.00 0.00 0.00 50 1014.0
20260903224502 94 272 1.0 4.0 0.00 0.00 0.00 51 1014.0
20260903224002 94 249 1.0 8.0 0.00 0.00 0.00 50 1014.1
20260903223502 94 238 2.0 8.0 0.00 0.00 0.00 49 1014.0
20260903223002 94 241 2.0 7.0 0.00 0.00 0.00 49 1013.9
20260903222502 95 243 2.0 5.0 0.00 0.00 0.00 48 1013.9
20260903222002 95 238 1.0 5.0 0.00 0.00 0.00 48 1013.8
20260903221502 95 232 2.0 6.0 0.00 0.00 0.00 49 1013.7
20260903221002 95 243 2.0 6.0 0.00 0.00 0.00 48 1013.7
20260903220503 95 215 2.0 6.0 0.00 0.00 0.00 48 1013.7
20260903220023 95 215 2.0 6.0 0.00 0.00 0.00 48 1013.5
20260903215502 96 235 2.0 5.0 0.00 0.00 0.00 47 1013.5
20260903215002 95 203 1.0 5.0 0.00 0.00 0.00 47 1013.6
20260903214524 96 202 1.0 5.0 0.00 0.00 0.00 47 1013.4
20260903214023 95 198 1.0 5.0 0.00 0.00 0.00 48 1013.4
20260903213502 95 218 2.0 5.0 0.00 0.00 0.00 48 1013.4
20260903213002 95 247 2.0 7.0 0.00 0.00 0.00 47 1013.6
20260903212502 95 236 1.0 7.0 0.00 0.00 0.00 47 1013.6